This is the latest recevied weather packets stored in our database for station/object K5BOU. If no packets are shown the sender has not sent any weather packets the latest 10 day(s).
| Time | Temp. | Humidity | Pressure | Rain* | Wind** | Luminosity | Snow |
|---|---|---|---|---|---|---|---|
| 1777985017 | 22.22° C | 99% | 1006.9 hPa | 0 mm | - | 64 W/m² | - |
| 1777984713 | 22.22° C | 99% | 1006.7 hPa | 0 mm | - | 89 W/m² | - |
| 1777984410 | 21.67° C | 99% | 1006.7 hPa | 0 mm | - | 90 W/m² | - |
| 1777984106 | 21.67° C | 99% | 1006.8 hPa | 0 mm | - | 65 W/m² | - |
| 1777983804 | 21.67° C | 99% | 1006.8 hPa | 0 mm | - | 46 W/m² | - |
| 1777983500 | 21.67° C | 99% | 1006.6 hPa | 0 mm | - | 25 W/m² | - |
| 1777983198 | 21.67° C | 99% | 1006.7 hPa | 0 mm | - | 12 W/m² | - |
| 1777982894 | 21.67° C | 99% | 1006.6 hPa | 0 mm | - | 10 W/m² | - |
| 1777982589 | 21.67° C | 99% | 1006.2 hPa | 0 mm | - | 9 W/m² | - |
| 1777982288 | 21.67° C | 99% | 1006.3 hPa | 0 mm | - | 8 W/m² | - |
| 1777981986 | 21.11° C | 99% | 1006.3 hPa | 0 mm | - | 6 W/m² | - |
| 1777981683 | 21.11° C | 99% | 1006.4 hPa | 0 mm | - | 3 W/m² | - |
| 1777981380 | 21.67° C | 99% | 1006.6 hPa | 0 mm | - | 0 W/m² | - |
| 1777981076 | 21.11° C | 99% | 1006.7 hPa | 0 mm | - | 0 W/m² | - |
| 1777980773 | 21.67° C | 99% | 1006.5 hPa | 0 mm | - | 0 W/m² | - |
| 1777980468 | 21.67° C | 99% | 1006.5 hPa | 0 mm | - | 0 W/m² | - |
| 1777980166 | 21.67° C | 99% | 1006.4 hPa | 0 mm | - | 0 W/m² | - |
| 1777979861 | 21.11° C | 99% | 1006.2 hPa | 0 mm | - | 0 W/m² | - |
| 1777979557 | 21.11° C | 99% | 1006.4 hPa | 0 mm | - | 0 W/m² | - |
| 1777979253 | 21.11° C | 99% | 1006.3 hPa | 0 mm | - | 0 W/m² | - |
| 1777978951 | 21.11° C | 99% | 1006.4 hPa | 0 mm | - | 0 W/m² | - |
| 1777978647 | 21.11° C | 99% | 1006.5 hPa | 0 mm | - | 0 W/m² | - |
| 1777978343 | 21.11° C | 99% | 1006.6 hPa | 0 mm | - | 0 W/m² | - |
| 1777978040 | 21.11° C | 99% | 1006.6 hPa | 0 mm | - | 0 W/m² | - |
| 1777977737 | 21.11° C | 99% | 1006.8 hPa | 0 mm | - | 0 W/m² | - |
* Rain latest hour (hover to see other rain measurements)
** Current wind speed in m/s (hover to see current wind gust speed)